This demonstration page uses our WeatherBlox Daily Observations layout. Learn more.

Left ArrowRight Arrow

Hourly Observations for March 14, 2021

Temp ( °F °C ) Dew Point ( °F °C ) Humidity (%) Winds ( mph kmh ) Pressure ( in mb ) Visibility ( mi km ) Precip ( " mm )
12:26 am 00:26 Cloudy with Light Rain 41 5 36 2.2 82 82 WNW 15 24 30.19 1022 9 14.48406 0.01 0.254
12:51 am 00:51 Cloudy 40 4.4 37 2.8 89 89 W 6 9 30.11 1020 10 16.0934 0.01 0.254
1:13 am 01:13 Mostly Cloudy 40 4.4 37 2.8 89 89 SW 8 13 30.19 1022 10 16.0934 0 0
1:32 am 01:32 Mostly Cloudy 40 4.4 37 2.8 89 89 WSW 10 17 30.18 1022 10 16.0934 0 0
1:51 am 01:51 Cloudy 39 3.9 37 2.8 93 93 W 6 9 30.1 1019 10 16.0934 0 0
2:51 am 02:51 Mostly Cloudy 39 3.9 36 2.2 89 89 Calm 30.09 1019 10 16.0934 0 0
3:51 am 03:51 Cloudy 40 4.4 36 2.2 86 86 WNW 9 15 30.09 1019 10 16.0934 0 0
4:51 am 04:51 Mostly Clear 40 4.4 35 1.7 83 83 NW 10 17 30.07 1018 10 16.0934 0 0
5:51 am 05:51 Clear 39 3.9 34 1.1 82 82 NW 8 13 30.08 1019 10 16.0934 0 0
6:51 am 06:51 Sunny 36 2.2 34 1.1 93 93 SSE 3 6 30.09 1019 10 16.0934 0 0
7:51 am 07:51 Mostly Sunny 40 4.4 36 2.2 86 86 SSW 6 9 30.09 1019 10 16.0934 0 0
8:51 am 08:51 Sunny 46 7.8 36 2.2 68 68 WNW 15 24 30.09 1019 10 16.0934 0 0
9:51 am 09:51 Mostly Sunny 49 9.4 36 2.2 61 61 NW 18 30 30.09 1019 10 16.0934 0 0
10:51 am 10:51 Sunny 52 11.1 36 2.2 55 55 NW 18 30 30.07 1018 10 16.0934 0 0
11:51 am 11:51 Sunny 54 12.2 34 1.1 47 47 NW 22 35 30.04 1017 10 16.0934 0 0
12:51 pm 12:51 Sunny 58 14.4 32 0 38 38 NW 24 39 30.01 1016 10 16.0934 0 0
1:51 pm 13:51 Mostly Cloudy 60 15.6 30 -1.1 32 32 NW 22 35 29.97 1015 10 16.0934 0 0
2:51 pm 14:51 Mostly Sunny 60 15.6 27 -2.8 28 28 WNW 28 44 29.95 1014 10 16.0934 0 0
3:51 pm 15:51 Sunny 61 16.1 23 -5 23 23 WNW 29 46 29.92 1013 10 16.0934 0 0
4:51 pm 16:51 Sunny 60 15.6 23 -5 24 24 WNW 26 43 29.91 1013 10 16.0934 0 0
5:51 pm 17:51 Sunny 57 13.9 24 -4.4 28 28 WNW 24 39 29.93 1014 10 16.0934 0 0
6:51 pm 18:51 Clear 55 12.8 28 -2.2 35 35 NW 20 31 29.96 1015 10 16.0934 0 0
7:51 pm 19:51 Clear 52 11.1 30 -1.1 43 43 NNW 10 17 29.99 1016 10 16.0934 0 0
8:51 pm 20:51 Clear 51 10.6 31 -0.6 46 46 NW 12 19 29.99 1016 10 16.0934 0 0
9:51 pm 21:51 Clear 49 9.4 31 -0.6 50 50 WNW 12 19 30.01 1016 10 16.0934 0 0
10:51 pm 22:51 Clear 46 7.8 31 -0.6 56 56 NW 9 15 29.99 1016 10 16.0934 0 0
11:51 pm 23:51 Clear 45 7.2 31 -0.6 58 58 NNW 5 7 29.99 1016 10 16.0934 0 0

Powered by AerisWeather